FW0980 Savannah GA US current weather conditions

sailwx.info

Wind from 044

Air temperature 11.1° C
Dewpoint 6.8° C

Last reported at 2020-Jan-24 03:49 UTC.
Time now 2020-Jan-24 04:32 UTC

Location: N 32°01' W 081°02'.
View on Google Maps.

See reports from other nearby stations

  
Tides and Currents Weather Stations Pressure Air Temp Water Temp Dewpoint Dewpoint Depression Visibility Wind Speed Wind Dir Waves Ship Positions
date/time (UTC)wind fromknots sea level pressurealtimeterstation pressurevisibilityair tempwater tempwave heightnotes
2020-Jan-24 03:49 044 11.1
2020-Jan-24 03:15 033 11.1
2020-Jan-24 02:47 273 11.1
2020-Jan-24 02:32 059 10.6
2020-Jan-24 01:46 068 10.6
2020-Jan-24 01:31 329 0 gusting 4 10.6
2020-Jan-24 01:17 074 10.6
2020-Jan-24 00:45 185 11.1
2020-Jan-24 00:30 056 1 gusting 5 11.1
2020-Jan-24 00:16 046 0 gusting 5 11.1
2020-Jan-23 23:46 052 11.1
2020-Jan-23 23:32 064 11.7
2020-Jan-23 23:18 086 11.7
2020-Jan-23 23:01 086 11.7
2020-Jan-23 22:45 086 12.2
2020-Jan-23 22:30 086 12.2
2020-Jan-23 22:16 087 12.8
2020-Jan-23 21:46 075 13.3
2020-Jan-23 21:32 029 0 gusting 4 13.3
2020-Jan-23 21:17 118 13.3
2020-Jan-23 21:00 019 1 gusting 6 13.3
2020-Jan-23 20:45 036 1 gusting 6 13.3
2020-Jan-23 20:15 024 1 gusting 6 12.8
2020-Jan-23 19:30 018 12.2
2020-Jan-23 19:15 047 12.2
2020-Jan-23 18:48 046 0 gusting 3 12.2
2020-Jan-23 18:32 007 0 gusting 4 11.7
2020-Jan-23 18:16 035 0 gusting 3 11.7
2020-Jan-23 18:00 336 11.7
2020-Jan-23 17:45 329 11.7
2020-Jan-23 17:31 180 12.2
2020-Jan-23 17:17 036 11.7
2020-Jan-23 16:47 326 11.1
2020-Jan-23 16:32 336 0 gusting 2 10.6
2020-Jan-23 16:17 276 0 gusting 4 10.0
2020-Jan-23 15:46 330 0 gusting 3 9.4
2020-Jan-23 15:30 312 0 gusting 4 9.4
2020-Jan-23 15:15 331 9.4
2020-Jan-23 14:46 045 8.9
2020-Jan-23 14:32 053 8.3
2020-Jan-23 13:46 055 7.2
2020-Jan-23 13:32 337 7.2
2020-Jan-23 13:16 026 6.7
2020-Jan-23 13:00 044 6.7
2020-Jan-23 12:47 293 6.7
2020-Jan-23 12:31 026 6.1
2020-Jan-23 12:16 335 6.1
2020-Jan-23 12:00 337 0 gusting 3 6.1
2020-Jan-23 11:46 040 6.1
2020-Jan-23 11:30 043 6.1
2020-Jan-23 11:16 041 1 gusting 8 6.1
2020-Jan-23 10:45 041 6.1
2020-Jan-23 10:30 338 0 gusting 5 6.1
2020-Jan-23 10:15 036 0 gusting 4 6.1
2020-Jan-23 10:00 060 6.1
2020-Jan-23 09:45 333 6.1
2020-Jan-23 09:31 037 6.1
2020-Jan-23 09:16 026 0 gusting 4 6.1
2020-Jan-23 09:00 337 5.6
2020-Jan-23 08:46 335 0 gusting 3 6.1
2020-Jan-23 08:32 081 6.1
2020-Jan-23 08:16 043 0 gusting 4 6.1
2020-Jan-23 08:00 070 0 gusting 3 6.1
2020-Jan-23 07:45 057 0 gusting 4 6.1
2020-Jan-23 07:30 007 5.6
2020-Jan-23 07:16 028 5.6
2020-Jan-23 06:45 328 5.6
2020-Jan-23 05:47 325 6.1
2020-Jan-23 05:30 070 6.1
2020-Jan-23 04:45 063 6.1
2020-Jan-23 04:31 048 6.1
2020-Jan-23 04:16 035 6.1
2020-Jan-23 03:46 326 6.1
2020-Jan-23 03:31 018 6.1
2020-Jan-23 03:16 016 6.1
2020-Jan-23 03:00 016 6.7
2020-Jan-23 02:45 332 0 gusting 5 7.2
2020-Jan-23 02:30 017 0 gusting 3 7.2
2020-Jan-23 02:16 053 0 gusting 2 7.2
2020-Jan-23 01:16 037 7.2
2020-Jan-23 00:47 044 0 gusting 1 7.2
2020-Jan-23 00:33 045 7.8
2020-Jan-23 00:16 045 7.8
2020-Jan-23 00:00 045 7.8
2020-Jan-22 23:31 044 8.3
2020-Jan-22 23:16 045 8.9
2020-Jan-22 22:47 044 10.0
2020-Jan-22 22:17 094 11.1
2020-Jan-22 21:47 064 12.2
2020-Jan-22 21:31 043 0 gusting 3 12.8
2020-Jan-22 21:16 092 1 gusting 4 12.8
2020-Jan-22 20:47 299 12.8
2020-Jan-22 20:33 062 12.8
2020-Jan-22 20:17 068 1 gusting 6 13.3
2020-Jan-22 19:45 076 1 gusting 6 14.4
2020-Jan-22 19:31 058 0 gusting 6 13.9
2020-Jan-22 19:15 055 2 gusting 8 13.3
2020-Jan-22 18:47 198 1 gusting 6 13.9
2020-Jan-22 18:32 321 1 gusting 6 13.3
2020-Jan-22 18:16 035 1 gusting 6 13.3
2020-Jan-22 17:17 035 0 gusting 3 12.2
2020-Jan-22 16:47 048 0 gusting 5 11.1
2020-Jan-22 16:31 007 0 gusting 4 10.6
2020-Jan-22 16:16 017 0 gusting 5 9.4
2020-Jan-22 16:00 320 0 gusting 5 8.3
2020-Jan-22 15:46 220 1 gusting 7 7.8
2020-Jan-22 15:31 031 0 gusting 4 7.2
2020-Jan-22 15:16 282 0 gusting 3 6.7
2020-Jan-22 14:47 336 0 gusting 5 5.0
2020-Jan-22 14:15 037 2.8
2020-Jan-22 13:47 326 0 gusting 3 1.7
2020-Jan-22 13:32 020 1.1
2020-Jan-22 13:16 007 0 gusting 2 1.1
2020-Jan-22 12:46 329 0.6
2020-Jan-22 11:47 316 0.6
2020-Jan-22 11:32 323 0 gusting 7 0.6
2020-Jan-22 10:47 295 0 gusting 6 1.1
2020-Jan-22 10:31 012 2 gusting 9 1.1
2020-Jan-22 10:16 280 3 gusting 10 1.1
2020-Jan-22 09:48 324 3 gusting 13 1.1
2020-Jan-22 09:33 304 3 gusting 12 1.1
2020-Jan-22 09:17 328 2 gusting 12 1.1
2020-Jan-22 09:00 333 2 gusting 7 1.1
2020-Jan-22 08:47 322 2 gusting 7 0.6
2020-Jan-22 08:34 298 -0.0
2020-Jan-22 08:16 007 0 gusting 5 0.6
2020-Jan-22 07:46 309 1 gusting 9 0.6
2020-Jan-22 07:31 318 1 gusting 7 0.6
2020-Jan-22 07:16 332 0 gusting 10 0.6
2020-Jan-22 07:01 329 1 gusting 8 0.6
2020-Jan-22 06:46 007 1 gusting 7 0.6
2020-Jan-22 06:31 318 2 gusting 8 0.6
2020-Jan-22 06:16 333 0 gusting 7 0.6
2020-Jan-22 05:45 321 0 gusting 10 0.6
2020-Jan-22 05:30 338 3 gusting 9 1.1
2020-Jan-22 05:17 291 0 gusting 12 1.1
2020-Jan-22 05:00 312 2 gusting 10 1.1
2020-Jan-22 04:45 330 3 gusting 10 1.1
2020-Jan-22 04:30 320 0 gusting 8 1.1
2020-Jan-22 04:15 320 0 gusting 10 1.1
2020-Jan-22 04:00 299 2 gusting 9 1.7